アサシン彗星

C/2018 N2 ( ASASSN )

English version
Home page
Updated on July 8, 2020

---------------------------------------------------------------------

・ プロフィール

発見日 2018年7月7日
発見光度 16.4等
発見者 All-Sky Automated Survey for Supernovae (ASASSN) program

・ 写真集

・ 軌道要素

Epoch 2019 Nov. 13.0 TT = JDT 2458800.5
T 2019 Nov. 10.96116 TT                                 Rudenko
q   3.1246390            (2000.0)            P               Q
z  -0.0000496      Peri.   24.39589     +0.78558506     -0.45744683
 +/-0.0000003      Node    25.25926     +0.27011645     -0.35227813
e   1.0001549      Incl.   77.53197     +0.55668053     +0.81648179
From 3235 observations 2018 July 11-2020 June 23, mean residual 0".4.

・ 星図

・ 光度変化

        m1 = 4.7 + 5 logΔ + 10.0 log r(t + 70)

---------------------------------------------------------------------

軌道要素はM.P.E.C. 2020-M114に掲載されたものです。
星図はステラナビゲータ Ver.10 (アストロアーツ) で作成したものです。
光度グラフはComet for Windowsで作成したものです。

---------------------------------------------------------------------

Copyright(C) Seiichi Yoshida (comet@aerith.net). All rights reserved.